{"data":{"norad_id":68132,"epoch":"2026-09-20T21:46:49.308096Z","epoch_age_seconds":43850,"freshness":"FRESH","line1":"1 68132U 26047D   26263.90751514 -.00000102  00000+0  48203-4 0  9994","line2":"2 68132  50.0041  72.8826 0001231  88.2701 271.8312 13.29328345 25795","mean_motion":13.29328345,"eccentricity":0.0001231,"inclination_deg":50.0041,"raan_deg":72.8826,"arg_perigee_deg":88.2701,"mean_anomaly_deg":271.8312,"bstar":4.8203e-5,"rev_number":2579,"period_min":108.32538141658,"perigee_km":1148.371092119,"apogee_km":1150.2243465469,"semimajor_km":7527.4347193329,"source":"CELESTRAK","updated_at":"2026-09-21T09:00:17.094578Z"}}